Location: Baumgarten
(49.0970°N, 12.7493°E)
Time: 18:07:46
(UTC+00:00)

Cosmos 2237 Rocket - Pass Details

Date: 05 July 2020
Orbit: 835 x 850 km, 71.0° (Epoch: 13 August)

Event Time Altitude Azimuth Distance (km) Brightness Sun altitude
Exits shadow 20:32:42 12° 135° (SE) 2,319 3.8 -9.8°
Maximum altitude 20:35:46 18° 99° (E) 1,959 3.7 -10.1°
Drops below altitude 10° 20:39:31 10° 58° (ENE) 2,484 4.6 -10.4°
Sets 20:42:42 0° 40° (NE) 3,426 5.6 -10.7°
